LiveATC.Net - Listen to live air traffic control over the Internet!


ICAO: CYWG  IATA: YWG   Airport: Winnipeg James Armstrong Richardson International Airport
City: Winnipeg   State/Province: Manitoba
Country: Canada   Continent: North America
CYWG METAR Weather: CYWG 200100Z 24011KT 15SM FEW250 03/M02 A2984 RMK CI1 SLP121
CYWG Flight Activity (FlightAware)

CYWG Gnd/Twr/App/Dep
Feed Status: UP   Listeners: 6
Listen in your browser - HTML5 player (in browser, HTML5)
Click here to listen with your own player (launches your MP3 player)
CYWG Gnd/Twr/App/Dep Audio Archives
FacilityFrequency
Winnipeg Arrival/Approach119.500
Winnipeg Departure119.900
Winnipeg Ground121.900
Winnipeg Tower125.400

NOTICE

Unauthorized use prohibited. See LiveATC.net Terms of Service


Find LiveATC Audio Streams


Airport/ARTCC Code

Frequency Search
(e.g., 124.400, 128.75)
Site-wide search
 


Browse LiveATC Feeds
Top 50 LiveATC Feeds
LiveATC Feed Map
Bad Weather Areas

LiveATC FAQ
Offer LiveATC feed
Contact LiveATC.net
Press Inquiries

LiveATC on iPhone
LiveATC on Android

Windows Phone
Windows 8/10

LiveATC Mobile
(Mobile browser)

ATC Audio Archives
Interesting Recordings

LiveATC Forums


Home Page
About LiveATC.net
Make a Donation
Terms of Use
Privacy Policy

Canadian Air Freqs

AIRMETs/SIGMETs

FAA Airport Status
Nat'l Airspace Status
Arrival Demand Charts


Server Software By:
Icecast.org
Liquidsoap